AOBA-VELOX 3 (41935 NORAD) Tracking and Keplerian Element Data

This shows tracking and keplerian element data for the satellite.

Feedback or suggestion? Click here.




ElementValue
Catalog41935
NameAOBA-VELOX 3
Epoch Orbit8579
Epoch Day198.95830778
Epoch Year2018
RAAN176.5963
Inclination51.6336
Eccentricity0.0003794
Argument of Perigee10.0995
Mean Anonmoly350.0083
Mean Motion15.83338197
Decay Rate0.00051143
L11 41935U 98067KX 18198.95830778 .00051143 00000-0 23236-3 0 9999
L22 41935 51.6336 176.5963 0003794 10.0995 350.0083 15.83338197 85798

Live tracking and technical data element details for AOBA-VELOX 3 (NORAD 41935). AOBA-VELOX 3 can be tracked NOW for your location showing map with azimuth and elevation plus other details from your city location.

Track the satellite on the map from your city or location and see movement details for azimuth, elevation, latitude, longitude, range, height, and movement on the map or in text.







IsCatalogInMostPopularTable: catalog: 41935, numindb: 95
Update: records affected: 1



GetName: 41935 AOBA-VELOX 3

Hit Count: updated at: Fri, 20 Jul 2018 20:31:12 GMT